Location: Dompnac
(44.5644°N, 4.1026°E)
Time: 11:06:10
(UTC+00:00)

Cosmos 1674 - Pass Details

Date: 19 September 2020
Orbit: 494 x 518 km, 82.5° (Epoch: 29 October)

Event Time Altitude Azimuth Distance (km) Brightness Sun altitude
Rises 20:21:06 0° 342° (NNW) 2,653 7.0 -27.0°
Reaches altitude 10° 20:23:23 10° 332° (NNW) 1,760 6.1 -27.4°
Enters shadow 20:26:40 32° 275° (W) 911 4.3 -27.9°
